Weather in Dzhemikent

Russia / Republic of Dagestan     42°14′06″N   48°02′25″E
temp.,
°C
wind,
m/s
gust,
m/s
humid.,
%
clouds,
%
prec.,
mm/h
press.,
hPa
HPBL,
m
20 april, tue
tue2000:00+14nw0166100 0.0 101612
03:00+13e117197 0.0 101516
06:00+14sse1265100 0.0 101451
09:00+18se3551100 0.0 1013492
12:00+21ese4545100 0.0 1010637
15:00+21ese5749100 0.0 1007429
18:00+16e2366100 0.0 1007118
21:00+16ene2266100 0.0 100671
21 april, wed
wed2100:00+14nnw3573100 0.0 1008105
03:00+12n038499 0.0 101087
06:00+13sw2281100 0.0 1013186
09:00+16ese2271100 0.0 1015495
12:00+19ne4456100 0.0 1016760
15:00+20n674921 0.0 10151024
18:00+17n596385 0.1 1017404
21:00+14nw2481100 0.3 1020140
22 april, thu
thu2200:00+12nw358468 0.0 1020153
03:00+12sw1186100 0.0 102012
06:00+13w1179100 0.0 102070
09:00+17nne33555 0.0 1020918
12:00+18nne66548 0.0 1020994
15:00+16n696399 0.0 1021905
18:00+13nnw3671100 0.0 1022562
21:00+13wsw2374100 0.1 1022281
23 april, fri
fri2300:00+13nnw237460 0.0 1019121
03:00+12wnw127688 0.0 101992
06:00+13wnw147267 0.0 1020263
09:00+15n685797 0.0 10211219
12:00+15n685897 0.0 10211130
15:00+16n335338 0.0 10211161
18:00+15nne126213 0.0 1022117
21:00+12sw22730 0.0 102223
24 april, sat
sat2400:00+11sw227410 0.0 102126
03:00+11sw227098 0.0 102020
06:00+12ssw1165100 0.0 102029
09:00+17ese454830 0.0 10201008
12:00+18e554616 0.0 10201148
15:00+18ese554710 0.0 10201089
18:00+15e35594 0.0 1020234
21:00+12sse12733 0.0 102174